Beta Version
Fallen Patents


NoPatent NoTitle Of The InnovationDecision NoDecision Date
1 GC0004895 METHOD FOR MANUFACTURING BEAM, AND BEAM 18/129949 2018/07/01
2 GC0004405 ISLAMIC ASSISTANT MOVABLE DEVICE 18/129948 2018/07/01
3 GC0006871 A PROCESS FOR CARRYING OUT ENDOTHERMIC, HETEROGENEOUSLY CATALYZED REACTIONS 18/129947 2018/07/01
4 GC0006047 CATALYST COMPOSITION FOR THE PRODUCTION OF SYNGAS FROM METHANE, PROCESS THEREFORE AND PROCESS FOR CO2 REFORMING THEREWITH 18/129946 2018/07/01
5 GC0006590 NEW PROMOTED MOLYBDENUM-BASED AnAm/HZSM-5 CATALYST COMPOSITION FOR HIGH SELECTIVITY FOR CONVERTING METHANE TO AN AROMATIC COMPOUND 18/129945 2018/07/01
6 GC0005992 DOWNHOLE ROTATIONAL LOCK MECHANISM 18/129944 2018/07/01
7 GC0006830 Process for the oxidative dehydrogenation of n-butenes to butadiene 18/129943 2018/07/01
8 GC0006000 MANUFACTURE OF DIHYDROXY AROMATIC COMPOUNDS BY ALCOHOLYSIS OF FLAME RETARDANT-CONTAINING POLYCARBONATE COMPOSITIONS 18/129942 2018/07/01
9 GC0005998 PROCESS FOR THE OXIDATIVE DEHYDROGENATION OF N-BUTENES TO BUTADIENE 18/129941 2018/07/01
10 GC0005465 REDUCING CONDUCTIVE CASING EFFECT IN TRANSIENT CASED-HOLE RESISTIVITY LOGGING 18/129940 2018/07/01
11 GC0006014 CONJUGATED POLYMER COMPOSITION FOR SOLAR CELL AND FLEXIBLE ELECTONICS APPLICATIONS 18/129939 2018/07/01
12 GC0005986 METHOD OF FORMING ZEOLITE SHAPED BODY WITH SILICA BINDER 18/129938 2018/07/01
13 GC0007293 METHOD OF MAKING A CATALYST AND CATALYST MADE THEREBY 18/129936 2018/07/01
14 GC0006200 MULTI-LEVEL RESERVOIR HISTORY MATCHING 18/129935 2018/07/01
15 GC0005927 ELEVATOR DOOR SYSTEM 18/129937 2018/07/01
16 GC0006195 MONITORING AND DIAGNOSING WATER FLOODED RESERVOIRS USING PRODUCTION DATA 18/129934 2018/07/01
17 GC0006172 SYSTEM, METHOD & COMPUTER PROGRAM PRODUCT TO SIMULATE DRILLING EVENT SCENARIOS 18/129932 2018/07/01
18 GC0005140 SPREAD CROSSLINKER AND METHOD OF WATER CONTROL DOWNHOLE 18/129931 2018/07/01
19 GC0005880 ELEVATOR CAR 18/129933 2018/07/01
20 GC0004775 PROCESS FOR PRODUCING A SYNTHESIS GAS MIXTURE 18/129930 2018/07/01
21 GC0004978 METHOD OF FORMING A SYNGAS MIXTURE 18/129929 2018/07/01
22 GC0006194 SYSTEMS AND METHODS FOR OPTIMIZING FACILITY LIMITED PRODUCTION AND INJECTION IN AN INTEGRATED RESERVOIR AND GATHERING NETWORK 18/129928 2018/07/01
23 GC0006204 PROCESS FOR PREPARING A CATALYST BASED ON A GROUP VIII METAL AND CONTAINING SILICON, AND A PROCESS OF SELECTIVE HYDROGENATION IMPLEMENTING SAID CATALYST 18/129927 2018/07/01
24 GC0007474 CATALYST FOR LIGHT NAPHTHA AROMATIZATION 18/129926 2018/07/01
25 GC0004198 METHOD AND SYSTEM OF DISPLAYING A GRAPHICAL REPRESENTATION OF HYDROCARBON PRODUCTION PARAMETERS 17/107130 2017/07/17
26 GC0005835 METHOD AND APPARATUS FOR GENERATING SEISMIC PULSES TO MAP SUBTERRANEAN FRACTURES 18/129924 2018/07/01
27 GC0006150 FUR-LINED WINTER DRESS 18/129922 2018/07/01
28 GC0005303 METHODS AND APPARATUS FOR CEMENTING WELLS 18/129923 2018/07/01
29 GC0004823 Process for the continuous production of polyetherols 18/129921 2018/07/01
30 GC0004839 METHODS AND SYSTEMS OF MODELING HYDROCARBON FLOW FROM LAYERED SHALE FORMATIONS 18/129925 2018/07/01
31 GC0004831 SYSTEMS AND METHODS FOR ESTIMATING FLUID BREAKTHROUGH TIMES AT PRODUCING WELL LOCATIONS 18/129917 2018/07/01
32 GC0004443 CONNECTOR ASSEMBLY 18/129919 2018/07/01
33 GC0004683 CONNECTOR ASSEMBLY 18/129918 2018/07/01
34 GC0005089 PROCESS FOR PREPARING BUTADIENE AND/OR BUTENES FROM N-BUTANE 18/129916 2018/07/01
35 GC0005244 FORKED HEAT PIPE 18/129915 2018/07/01
36 GC0004160 SAFETY CAP 17/107129 2017/07/17
37 GC0005803 SYSTEM AND METHOD FOR FLEXIBLE AND EFFICIENT SIMULATION OF VARYING FRACTURE DENSITY IN A RESERVOIR SIMULATOR 18/129913 2018/07/01
38 GC0005250 MIXED-PHASE OPERATION OF BUTENES METATHESIS PROCESS FOR MAXIMIZING PROPYLENE PRODUCTION 18/129912 2018/07/01
39 GC0004838 METHOD FOR THE REMOVAL OR SUPPRESSION OF INTERFERING METAL IONS USING ENVIRONMENTALLY FRIENDLY COMPETITIVE BINDERS 18/129910 2018/07/01
40 GC0004535 DUAL CURE SYSTEM 18/129911 2018/07/01
41 GC0005807 DRILL BIT FOR PERFORMING ELECTROMAGNETIC MEASUREMENTS IN A SUBTERRANEAN FORMATION 18/129909 2018/07/01
42 GC0005022 METHODS AND SYSTEMS OF MODELING HYDROCARBON FLOW FROM KEROGENS IN A HYDROCARBON BEARING FORMATION 18/129908 2018/07/01
43 GC0004237 AUTONOMOUS FLUID CONTROL DEVICE HAVING A MOVABLE VALVE PLATE FOR DOWNHOLE FLUID SELECTION 17/107128 2017/07/17
44 GC0004168 NANOPARTICLE SMART TAGS IN SUBTERRANEAN APPLICATIONS 17/107127 2017/07/17
45 GC0004483 HEAT TUBE 18/129907 2018/07/01
46 GC0004188 PROCESS FOR PREPARING ALKOXY ARYL ESTER 18/130169 2018/07/01
47 GC0005879 PIPELINE BUNDLING ASSEMBLY, MOULD ASSEMBLY, AND METHOD FOR BUNDLED PLACEMENT OF PIPELINES 18/130168 2018/07/01
48 GC0006242 SYSTEMS AND METHODS FOR ASSISTED PROPERTY MODELING 18/130165 2018/07/01
49 GC0005170 OPTICAL CASING COLLAR LOCATOR SYSTEMS AND METHODS 18/130164 2018/07/01
50 GC0005188 DISPERSION COMPRISING A LIQUID PHASE AND A SOLID PHASE 18/130163 2018/07/01
51 GC0006196 FLUID LOSS ADDITIVES AND METHODS OF MAKING AND USING SAME 18/130167 2018/07/01
52 GC0005376 POLYMERIC MATERIALS FOR OUTDOOR APPLICATIONS WITH SELF-HEALING SURFACE PROPERTIES AFTER SCRATCHING OR ABRASION DAMAGE 18/130166 2018/07/01
53 GC0005112 ANTIBODIES TO PCSK9 AND USES THEREOF 18/130162 2018/07/01
54 GC0005560 POLYPROPYLENE BLEND FOR PIPES 18/130161 2018/07/01
55 GC0004334 PRODUCTION OF PARAXYLENE 17/107126 2017/07/17
56 GC0005870 ETHYLENE-BASED POLYMER COMPOSITIONS, METHODS OF MAKING THE SAME, AND ARTICLES PREPARED FROM THE SAME 18/130160 2018/07/01
57 GC0005815 METHOD AND SYSTEM OF CORRELATING A MEASURED LOG TO A PREDICTED LOG 18/130159 2018/07/01
58 GC0004457 FILTER CLEANING APPARATUS 17/107124 2017/07/17
59 GC0005503 DEVICE AND METHOD FOR GENERATING STEAM BY INDUCTION HEATING 18/130158 2018/07/01
60 GC0005146 PROCESS FOR A CONTINUOUS PRODUCTION OF POLYETHEROLS 17/107123 2017/07/17
61 GC0005806 SEISMIC GEOPHYSICAL SURVEYING 18/130157 2018/07/01
62 GC0003853 IMPROVEMENTS IN WASTE PROCESSING 17/107122 2017/07/17
63 GC0005531 SYSTEMS, COMPUTER MEDIUM AND COMPUTER-IMPLEMENTED METHODS FOR MONITORING HEALTH AND ERGONOMIC STATUS OF DRIVERS OF VEHICLES 18/130156 2018/07/01
64 GC0005241 IMPROVED CARBON SUPPORTED COBALT AND MOLYBDENUM CATALYST AND USE THEREOF FOR PRODUCING LOWER ALCOHOLS 18/130155 2018/07/01
65 GC0004813 USING PROJECTION ONTO CONVEX SETS TO CONSTRAIN FULL-WAVEFIELD INVERSION 17/107125 2017/07/17
66 GC0004693 POLYMERIC MATERIAL FOR AN INSULATED CONTAINER 17/107121 2017/07/17
67 GC0004659 WATER PURIFICATION SYSTEM AND METHOD 18/130154 2018/07/01
68 GC0006183 VALVE DEVICES, SYSTEMS, AND METHODS FOR CONTROLLING THE DISTRIBUTION OF MATERIALS 18/130153 2018/07/01
69 GC0004381 MEMORANDUM OF THE TWO HOLY MOSQUES 18/130152 2018/07/01
70 GC0004163 METHODS FOR DE-ENERGIZING A CHAIN-LINK CONVERTER, CONTROLLER, COMPUTER PROGRAMS AND COMPUTER PROGRAM PRODUCTS 17/107119 2017/07/17
71 GC0003920 A METHOD IN A CONTROLLER FOR PROTECTION OF A VOLTAGE SOURCE CONVERTER, CONTROLLER, COMPUTER PROGRAMS AND COMPUTER PROGRAM PRODUCTS 17/107120 2017/07/17
72 GC0004228 SURFACTANT ADDITIVES USED TO RETAIN PRODUCIBILITY WHILE DRILLING 17/107118 2017/07/17
73 GC0004973 AMIDE COMPOUNDS AND PHARMACEUTICAL USES THEREOF 18/130150 2018/07/01
74 GC0006375 CATALYST FOR THE ALKYLATION OF AROMATIC HYDROCARBONS 18/130151 2018/07/01
75 GC0004074 CONTROLLED PRODUCTION AND INJECTION 17/107117 2017/07/17
76 GC0004919 DETERMINING WELL INTEGRITY 18/130149 2018/07/01
77 GC0003857 ELECTRIC POWER CONVERSION SYSTEM 16/80798 2016/07/13
78 GC0004084 PRODUCING PU RIGID FOAMS 18/130148 2018/07/01
79 GC0006233 MULTICOMPONENT BORHOLE RADAR SYSTEMS AND METHODS 18/130147 2018/07/01
80 GC0004108 METHOD FOR MANAGING CHANNELING IN GEOTHERMAL RECOVERY OF HYDROCARBON RESERVOIRS 17/107116 2017/07/17
81 GC0004810 FACILE SYNTHESIS OF GRAPHENE, GRAPHENE DERIVATIVES AND ABRASIVE NANOPARTICLES AND THEIR VARIOUS USES, INCLUDING AS TRIBOLOGICALLY-BENEFICIAL LUBRICANT ADDITIVES 18/130146 2018/07/01
82 GC0004438 TEMPERATURE CONTROL SYSTEM, HYDROCARBON SYNTHESIS REACTION APPARATUS, HYDROCARBON SYNTHESIS REACTION SYSTEM, AND TEMPERATURE CONTROL PROCESS 17/107115 2017/07/17
83 GC0005874 ACOUSTIC SIGNAL PROCESSING USING MODEL-BASED ADAPTIVE FILTERING 18/130145 2018/07/01
84 GC0003733 PROCESS OF LOW ENERGY CONSUMPTION FOR PREPARING A CARBOXYLIC ACID ESTER 16/80683 2016/07/13
85 GC0004692 IMPROVED COMPOSITE SYSTEM FOR PACKAGES 17/107114 2017/07/17
86 GC0004447 PROCESS FOR PREPARING ALKANOLAMINES BY HOMOGENEOUSLY CATALYZED ALCOHOL AMINATION 18/130143 2018/07/01
87 GC0003672 PROCESSES AND SYSTEMS FOR DRYING LIQUID BROMINE 16/80682 2016/07/13
88 GC0005353 SENSITIVITY KERNEL-BASED MIGRATION VELOCITY ANALYSIS IN 3D ANISOTROPIC MEDIA 18/130142 2018/07/01
89 GC0004075 BACKSCATTER ENERGY ANALYSIS FOR CLASSIFICATION OF MATERIALS BASED ON POSITIONAL NON-COMMUTATIVITY 17/107113 2017/07/17
90 GC0004493 LIQUID PHASE HYDROGENATION OF ALKYNES 18/130140 2018/07/01
91 GC0003919 ASSEMBLIES FOR A STRUCTURE 18/130138 2018/07/01
92 GC0005666 METHOD AND WELLBORE SYSTEM 18/130139 2018/07/01
93 GC0004144 MOBILE PORTABLE TOILET ON A TRAILER IN A HORIZONTAL POSITION 18/130137 2018/07/01
94 GC0005129 METHOD FOR CONVERTING HYDROCARBON FEEDSTOCK COMPRISING A SHALE OIL BY HYDROCONVERSION IN AN EBULLATING BED, FRACTIONATION BY ATMOSPHERIC DISTILLATION, AND HYDROCRACKING 18/130136 2018/07/01
95 GC0004534 REACTOR FOR CARRYING OUT AN AUTOTHERMAL GAS-PHASE DEHYDROGENATION 18/130135 2018/07/01
96 GC0006185 CATALYST USEFUL IN FISHER-TROPSCH SYNTHESIS 18/130134 2018/07/01
97 GC0003928 DOWNHOLE FLUID FLOW CONTROL SYSTEM AND METHOD HAVING DIRECTION DEPENDENT FLOW RESISTANCE 17/107110 2017/07/17
98 GC0003882 WELL SCREENS HAVING ENHANCED WELL TREATMENT CAPABILITIES 17/107109 2017/07/17
99 GC0006491 PROCESS FOR IMPROVING THE SELECTIVITY OF AN EO CATALYST 18/130133 2018/07/01
100 GC0004528 SOLAR HEAT COLLECTOR AND SOLAR HEAT COLLECTION METHOD 17/107112 2017/07/17
101 GC0004236 SYSTEM USING SOLAR HEAT AND METHOD OF CONTROLLING THE SAME 17/107111 2017/07/17
102 GC0005085 USE OF A HYDROPHOBICALLY ASSOCIATING COPOLYMER AS AN ADDITIVE IN SPECIFIC OILFIELD APPLI¬CATIONS 17/107108 2017/07/17
103 GC0003724 REMOTE OPERATION OF A ROTATING CONTROL DEVICE BEARING CLAMP 17/107107 2017/07/17
104 GC0006692 PROCESS FOR PREPARING A POLYESTER 18/130132 2018/07/01
105 GC0004067 PARTICLE ACCELERATOR WITH A HEAT PIPE SUPPORTING COMPONENTS OF A HIGH VOLTAGE POWER SUPPLY 17/107106 2017/07/17
106 GC0005025 METHOD FOR THE DETERMINATION OF IMPURITIES IN SILICON 18/130131 2018/07/01
107 GC0003569 DIMERIC IAP INHIBITORS 16/80681 2016/07/13
108 GC0003429 APPARATUS AND METHODS FOR TRACKING THE LOCATION OF FRACTURING FLUID IN A SUBTERRANEAN FORMATION 16/80680 2016/07/13
109 GC0003620 PROCESS FOR THE PRODUCTION OF PURIFIED XYLENE ISOMERS 18/130130 2018/07/01
110 GC0003740 DEVICE FOR ANALYZING AT LEAST ONE HYDROCARBON CONTAINED IN A DRILLING FLUID AND ASSOCIATED METHOD 17/107105 2017/07/17
111 GC0005334 ENERGY CONVERSION DEVICE 18/130128 2018/07/01
112 GC0003954 Steam System Comprises Low Pressure Degasser For Degassing Feed Water, Low Pressure Steam Rail, Whose Operating Pressure Is At Second Pressure Level, And High Pressure Steam Rail, Whose Operating Pressure Is At Third Pressure Level 18/130129 2018/07/01
113 GC0005672 THERMAL PROCESS USING A PLURALITY OF SORPTION REACTORS 18/130126 2018/07/01
114 GC0003420 SWELLABLE MEMBER, SWELL CONTROLLING ARRANGEMENT AND METHOD OF CONTROLLING SWELLING OF A SWELLABLE MEMBER 16/80679 2016/07/13
115 GC0004538 PROCESS FOR PRODUCING GRANULES COMPRISING ONE OR MORE COMPLEXING AGENT SALTS 18/130125 2018/07/01
116 GC0004671 APPARATUS AND METHOD FOR PROCESSING BAGGED REFUSE 17/107104 2017/07/17
117 GC0003425 Environmenatlly Friendly Base Fluids and Methods for Making and Using Same 18/130123 2018/07/01
118 GC0003975 RAW GAS COLLECTION SYSTEM 17/107103 2017/07/17
119 GC0004162 Methods of Using Nano-Particles in Wellbore Operations 18/130127 2018/07/01
120 GC0004701 PROCESS FOR THE REGENERATION OF A COPPER, ZINC AND ZIRCONIUM OXIDE-COMPRISING ADSORPTION COMPOSITION 18/130122 2018/07/01
121 GC0004677 PROCESS FOR THE ACTIVATION OF A COPPER-, ZINC- AND ZIRCONIUM OXIDE-COMPRISING ADSORPTION COMPOSITION 18/130121 2018/07/01
122 GC0003389 DISPOSABLE RAZOR DEVICE AND BLADES TWO BLADES ON A MOVABLE HEAD AND A SINGLE BLADE ON A HEAD FIXED TO THE RAZOR DEVICE FOR USE AT BARBERSHOPS, HAIRDREESING SALONS AND HOMES AND THEN DISPOSED OF 16/80678 2016/07/13
123 GC0004514 METHOD FOR PRODUCING HYDROCARBON OIL AND SYSTEM FOR PRODUCING HYDROCARBON OIL 17/107101 2017/07/17
124 GC0005109 PRESSURE FLOTATION APPARATUS AND PRESSURE FLOTATION METHOD 18/130120 2018/07/01
125 GC0003979 Preparing a Nickel Phosphorus Ligand Complex 17/107102 2017/07/17
126 GC0006212 HYBRID METHOD FOR FULL WAVEFORM INVERSION USING SIMULTANEOUS AND SEQUENTIAL SOURCE METHOD 18/130124 2018/07/01
127 GC0004079 SYSTEM AND METHOD FOR RECEIVING AND SYNCHRONIZING CONTENT ON A COMMUNICATION DEVICE 17/107100 2017/07/17
128 GC0004817 COILED TUBING METHOD INCLUDING PRODUCTION TUBING MEMBER WITH AUXILIARY CONDUIT 18/130118 2018/07/01
129 GC0003987 FRAME FOR GLASSES, MASKS FOR PROFESSIONAL OR SPORTS USE, AND THE LIKE 18/130119 2018/07/01
130 GC0003826 PROCESS FOR MAKING NITRILES 17/107099 2017/07/17
131 GC0003818 PROCESS FOR MAKING NITRILES 17/107098 2017/07/17
132 GC0003817 PROCESS FOR MAKING NITRILES 16/80677 2016/07/13
133 GC0003825 PROCESS FOR MAKING NITRILES 18/130117 2018/07/01
134 GC0003816 PROCESS FOR MAKING NITRILES 18/130116 2018/07/01
135 GC0003815 PROCESS FOR MAKING NITRILES 17/107097 2017/07/17
136 GC0003814 PROCESS FOR MAKING NITRILES 17/107096 2017/07/17
137 GC0003641 NEUTRON DETECTION BASED ON A BORON SHIELDED GAMMA DETECTOR 17/107095 2017/07/17
138 GC0003819 SYSTEM FOR CEMENTING TUBULARS COMPRISING A MUD MOTOR 16/80676 2016/07/13
139 GC0003799 DEVICE FOR EXTRACTING SHORT-CIRCUITING WEDGES WHEN SWITCHING IN AN ELECTROLYSIS CELL FOR THE PRODUCTION OF ALUMINUM 18/130115 2018/07/01
140 GC0003678 DETECTING AND CORRECTING UNINTENDED FLUID FLOW BETWEEN SUBTERRANEAN ZONES 17/107094 2017/07/17
141 GC0003490 NANOFLUIDS AND METHODS OF USE FOR DRILLING AND COMPLETION FLUIDS 16/80675 2016/07/13
142 GC0004313 AN OIL-BASED GROUTING COMPOSITION WITH AN INSULATING MATERIAL 17/107093 2017/07/17
143 GC0003440 SYSTEM AND METHOD FOR THE PROVISION OF CONTENT TO A SUBSCRIBER 17/107091 2017/07/17
144 GC0003945 MICROBIOLOGICAL CONTROL IN OIL AND GAS OPERATIONS 17/107092 2017/07/17
145 GC0003382 QATARI CUBERITHM MANUAL CALCULATOR FOR THE VISUALLY IMPAIRED THE VITAL ARITHMETIC PANEL 16/80674 2016/07/13
146 GC0003385 THE GEOMETRY: HIGHER PRECISION GEOMETRY SET FOR THE BLIND 16/80673 2016/07/13
147 GC0003383 THE BRAILLE TEACHER A LEARNING TOOL FOR FAMILIES TEACHING BLIND PERSONS HOW TO READ AND WRITE BRAILLE 16/80672 2016/07/13
148 GC0003384 ALBAIAN A LEARNING FACILITY TO PRACTICE ANALYTICAL GEOMETRY AND STATISTICS FOR THE BLIND 16/80671 2016/07/13
149 GC0003966 MASS TRANSFER PACKING ELEMENT AND METHOD OF MAKING THE SAME 17/107090 2017/07/17
150 GC0005787 METHOD AND APPARATUS FOR MONITORING AND RESTORING ELECTRICAL PROPERTIES OF POLYMERIZATION REACTOR WALL FILM 18/130114 2018/07/01
151 GC0003859 HYDRAULIC FRACTURING METHOD 18/130113 2018/07/01
152 GC0004481 PROCESS FOR PRODUCING POLYETHEROLS 18/130112 2018/07/01
153 GC0003964 GAS INSULATED SWITCHGEAR ARRANGEMENT 18/130111 2018/07/01
154 GC0004127 PROPPANTS FOR USE IN HYDRAULIC FRACTURING OF SUBTERRANEAN FORMATIONS 18/130110 2018/07/01
155 GC0005540 HIGH SHEAR APPLICATION IN MEDICAL THERAPY 18/130109 2018/07/01
156 GC0004642 HETEROBIARYL-CYCLOHEXYL-TETRAAZABENZO[E]AZULENES 18/130108 2018/07/01
157 GC0005152 HETEROARYL-CYCLOHEXYL-TETRAAZABENZO[E]AZULENES 18/130107 2018/07/01
158 GC0004767 A METHOD AND SYSTEM FOR OPTIMIZING MEMBRANE CLEANING PROCESS 18/130106 2018/07/01
159 GC0003820 SYSTEM FOR OPTIMIZING A DRILLING OPERATION AND METHOD FOR USING SAME 17/107089 2017/07/17
160 GC0004107 RECONDITIONING AND REUSE OF WELLBORE SERVICING FLUIDS 17/107088 2017/07/17
161 GC0004113 NOVEL HUMANIZED ANTI CXCR4 ANTIBODIES FOR THE TREATMENT OF CANCER 17/107087 2017/07/17
162 GC0003612 HYBIRD THERMAL POWER GENERATION SYSTEM AND METHOD OF CONSTRUCTING SAME 16/80670 2016/07/13
163 GC0005507 HYDROCARBON GAS PROCESSING 18/130105 2018/07/01
164 GC0004913 HIGH MODULUS POLYPROPYLENE COMPOSITION FOR PIPE APPLICATIONS 18/130104 2018/07/01
165 GC0004046 Method of repairing a pipe coating 18/130102 2018/07/01
166 GC0004620 APPARATUS AND METHODS FOR RUNNING LINERS IN EXTENDED REACH WELLS 18/130103 2018/07/01
167 GC0003690 HIGHWAUS DEVICE, IN PARTICULAR MANHOLE WITH FRAME AND PLUG WITH BACKWARD MOVEMENT RELATIVE TO THE FRAME TO ENSURE THE CLOSED POSITION OF THE PLUG IN THE FRAME 17/107086 2017/07/17
168 GC0003807 ROLLER MILL 16/80669 2016/07/13
169 GC0004094 SYSTEM AND METHOD FOR OPTIMIZING DRILLING SPEED 17/107085 2017/07/17
170 GC0007034 METHOD FOR PRODUCING REGENERATED FISCHER-TROPSCH SYNTHESIS CATALYST, AND METHOD FOR PRODUCING HYDROCARBONS 18/130101 2018/07/01
171 GC0004136 SYSTEMS AND METHODS FOR EVALUATING ASPHALTENE DEPOSITION INHIBITORS 17/107084 2017/07/17
172 GC0004249 ETHANOL COMPOSITIONS 18/130100 2018/07/01
173 GC0004101 CONCRETE ELEMENT HAVING A SUPERHYDROPHOBIC SURFACE 17/107083 2017/07/17
174 GC0003261 Improvements in Thermal Oxidisers 18/119118 2018/01/17
175 GC0003835 SYSTEM AND METHOD FOR A GLOBAL DIRECTORY SERVICE 17/107082 2017/07/17
176 GC0003345 HYDRAULIC DEPLOYMENT OF A WELL ISOLATION MECHANISM 17/107081 2017/07/17
177 GC0002886 METHOD IN THE MANUFACTURE OF AN ELEVATOR 14/55153 2014/10/29
178 GC0003879 CLIP CONNECTION USED TO CONSTRUCT A METAL GRID FOR SUSPENDED CEILINGS 18/130099 2018/07/01
179 GC0003590 CONVERSION OF HYDROCARBONS TO CARBON DIOXIDE AND ELECTRICAL POWER 17/107079 2017/07/17
180 GC0003589 CONVERSION OF HYDROCARBONS TO CARBON DIOXIDE AND ELECTRICAL POWER 17/107080 2017/07/17
181 GC0003796 SHUT-DOWN AND START-UP PROCEDURES OF AN ELECTROLYTIC CELL 17/107078 2017/07/17
182 GC0003033 System for transferring energy to a vehicle and method of operating the system 15/67361 2015/10/13
183 GC0003961 PROCESS FOR THE PRODUCTION OF LIQUEFIED NATURAL GAS HAVING AN ADJUSTED GROSS CALORIFIC VALUE 17/107077 2017/07/17
184 GC0003686 METHOD FOR MONITORING HYDROCARBON PRODUCTION 16/80668 2016/07/13
185 GC0003251 Ethynyl derivatives 17/107076 2017/07/17
186 GC0005946 METHOD FOR DETERMINING CHARACTERISTICS OF TUBING DEPLOYED IN A WELLBORE 18/130098 2018/07/01
187 GC0003888 SYSTEM FOR TRANSFERRING LARGE LOADS AND METHOD FOR OPERATING THEREOF 16/80667 2016/07/13
188 GC0004050 SHAPED CHARGE 17/107074 2017/07/17
189 GC0003802 DEVICE DESIGNED TO COLLECT SOLID DEBRIS IN AN ELECTROLYSIS BATH FOR THE PRODUCTION OF ALUMINIUM 17/107073 2017/07/17
190 GC0004276 CAN END WITH FILM INSERT 17/107075 2017/07/17
191 GC0003076 SYRINGES FOR DELIVERY OF MEDICATIONS, PARTICULARLY COMBINATIONS OF MEDICATIONS 15/67360 2015/10/13
192 GC0003305 PROCESS FOR CHANGING A SPENT ANODE AND SUPPORT AND SYSTEM FOR THE TEMPORARY STORAGE OF SUCH A SPENT ANODE 17/107072 2017/07/17
193 GC0002794 An Apparatus for Processing Organic Materials 18/119117 2018/01/17
194 GC0003659 INSPECTION CHAMBER PART AND METHOD FOR PREPARING SUCH PART FOR INSTALLATION 16/80666 2016/07/13
195 GC0005416 PROCESS FOR PREPARING A SUPPORTED HYDROGENATION CATALYST WITH INCREASED HYDROGENATION ACTIVITY 18/130096 2018/07/01
196 GC0002853 INHIBITORS OF DIACYLGLYCEROL ACYLTRANSFERASE 15/67359 2015/10/13
197 GC0003430 METHOD AND SYSTEM FOR LINING A SECTION OF A WELLBORE WITH AN EXPANDABLE TUBULAR ELEMENT 18/130097 2018/07/01
198 GC0003080 MULTISCALE FINITE VOLUME METHOD FOR RESERVOIR SIMULATION 16/80665 2016/07/13
199 GC0004078 EMULSION STABILIZING AGENTS FOR DRILLING AND COMPLETION FLUIDS 17/107071 2017/07/17
200 GC0003269 STEAM DISTRIBUTION APPARATUS AND METHOD FOR ENHANCED OIL RECOVERY OF VISCOUS OIL 16/80664 2016/07/13
201 GC0003064 CEILING SYSTEM WITH INTEGRATED EQUIPMENT SUPPORT STRUCTURE 16/80663 2016/07/13
202 GC0004239 CATALYSTS FOR THE PREPARATION OF METHYLPYRIDINE 18/130093 2018/07/01
203 GC0003852 METHODS AND DEVICES FOR THE PRODUCTION OF CYANOPYRIDINES 18/130095 2018/07/01
204 GC0003290 Methods and devices for the production of cyanopyridines 18/130094 2018/07/01
205 GC0005362 DISSOLVED GAS FLOTATION PRESSURE REDUCTION NOZZLE 18/130092 2018/07/01
206 GC0003692 PROCESS FOR MINERAL OIL PRODUCTION USING SURFACTANT MIXTURES 17/107070 2017/07/17
207 GC0004064 DOWNHOLE MULTI-PARALLEL HYDROCYCLONE SEPARATOR 17/107069 2017/07/17
208 GC0004038 WELL DRILLING METHODS WITH EVENT DETECTION 17/107068 2017/07/17
209 GC0003077 MANAGING FLOW TESTING AND THE RESULTS THEREOF FOR HYDROCARBON WELLS 16/80661 2016/07/13
210 GC0004051 INFLOW CONTROL DEVICE AND METHODS FOR USING SAME 17/107067 2017/07/17
211 GC0003871 BASE PLATE FOR FASTENING A RAIL TO A FIXED BOTTOM SUPPORT, AND FASTENER FOR A RAIL 17/107066 2017/07/17
212 GC0003596 PROCESS FOR OLIGOMERIZING OLEFINS 18/130091 2018/07/01
213 GC0003310 METHOD OF PROCESSING AND DISPOSING OF HYDROCARBON WASTE 17/107065 2017/07/17
214 GC0004118 METHOD FOR IMPROVING WATERFLOOD PERFORMANCE USING BARRIER FRACTURES AND INFLOW CONTROL DEVICES 17/107063 2017/07/17
215 GC0003263 IMPROVED ENHANCED OIL RECOVERY SURFACTANT COMPOSITION AND METHOD OF MAKING THE SAME 16/80660 2016/07/13
216 GC0003509 SLURRY PREPARATION METHOD, SLURRY PREPARATION DEVICE, HYDROCARBON SYNTHESIS REACTION APPARATUS, AND HYDROCARBON SYNTHESIS REACTION SYSTEM 17/107064 2017/07/17
217 GC0002972 NODE TO NODE COLLABORATION FOR EARTH MODELING 16/80659 2016/07/13
218 GC0003062 PROCESS FOR METHANOL AND AMMONIA CO-PRODUCTION 18/130089 2018/07/01
219 GC0003065 WATER-BASED MUD LUBRICANT USING FATTY ACID POLYAMINE SALTS AND FATTY ACID ESTERS 17/107062 2017/07/17
220 GC0003061 COMBINED REFORMING PROCESS FOR METHANOL PRODUCTION 18/130088 2018/07/01
221 GC0003344 GASIFICATION OF CARBONACEOUS MATERIALS AND GAS TO LIQUID PROCESSES 15/67358 2015/10/13
222 GC0003074 BACK DRAFT DAMPER 18/130087 2018/07/01
223 GC0004837 METHOD OF PARTIALLY UPGRADING HEAVY OIL AT WELL-SITE 18/130090 2018/07/01
224 GC0006386 FLOW RESTRICTOR DEVICE 18/130086 2018/07/01
225 GC0003773 TWO-WIRE LOOP PROCESS IO TRANSMITTER POWERED FROM THE TWO-WIRE LOOP 16/80658 2016/07/13
226 GC0004323 PHARMACEUTICAL COMPOSITION FOR A HEPATITIS C VIRAL PROTEASE INHIBITOR 17/107061 2017/07/17
227 GC0004012 A UNIVERSAL ROTATING FLOW HEAD HAVING A MODULAR LUBRICATED BEARING PACK 18/130085 2018/07/01
228 GC0002964 Methyl-substituted TETA compounds 16/80657 2016/07/13
229 GC0003153 Method and apparatus for disinfecting packaging 18/130084 2018/07/01
230 GC0002737 Loading device for loading particles, method for loading particles using a loading device 15/67357 2015/10/13
231 GC0003953 HYDROCARBON GAS PROCESSING 16/80656 2016/07/13
232 GC0003453 COMPRESSED-GAS BOTTLE 17/107059 2017/07/17
233 GC0003229 Method and Arrangement to Cotrol an AC System 17/107060 2017/07/17
234 GC0002963 Substituted piperidines 16/80655 2016/07/13
235 GC0003687 PROCESS FOR THE PREPARATION OF IBODUTANT MEN15596 AND RELATED INTERMEDIATES 18/130083 2018/07/01
236 GC0002911 1,2,4-TRIAZOLO[4,3-a]PYRIDINE DERIVATIVES AND THEIR USE AS POSITIVE ALLOSTERIC MODULATORS OF MGLUR2 RECEPTORS 16/80654 2016/07/13
237 GC0002909 7-ARYL-1,2,4-TRIAZOLO[4,3-a]PYRIDINE DERIVATIVES AND THEIR USE AS POSITIVE ALLOSTERIC MODULATORS OF MGLUR2 RECEPTORS 16/80653 2016/07/13
238 GC0002910 1,2,4-TRIAZOLO[4,3-a]PYRIDINE DERIVATIVES AND THEIR USE AS POSITIVE ALLOSTERIC MODULATORS OF MGLUR2 RECEPTORS 17/107058 2017/07/17
239 GC0003117 STABILIZED LIPID FORMULATION OF APOPTOSIS PROMOTER 17/107057 2017/07/17
240 GC0003126 Method For Determining Wettability Of An Oil Reservoir 17/107056 2017/07/17
241 GC0002946 Process for preparing vinyl acetate monomer 16/80652 2016/07/13
242 GC0003697 DREDGING VASSEL AND METHOD FOR LOADING THE DREDGING VASSEL WITH DREDGED MATERAIL 17/107055 2017/07/17
243 GC0003343 COMPOSITIONS AND METHODS FOR SERVICING SUBTERRANEAN WELLS 17/107054 2017/07/17
244 GC0003630 WELLBORE PERFORATING DEVICES 17/107053 2017/07/17
245 GC0004089 PROCESS FOR THE PREPARATION OF HYDROGEN AND CARBON MONOXIDE CONTAINING GAS 17/107052 2017/07/17
246 GC0004359 SYSTEMS FOR COST-EFFECTIVE CONCENTRATION AND UTILIZATION OF SOLAR ENERGY 18/130082 2018/07/01
247 GC0003219 START UP PROCEDURE IN A PROCESS FOR PURIFYING AROMATIC STREAMS 16/80650 2016/07/13
248 GC0003700 VISCOELASTIC SURFACTANTS AND METHODS OF MAKING AND USING SAME 17/107051 2017/07/17
249 GC0003624 WASTE HANDLING SYSTEM AND METHOD 18/130081 2018/07/01
250 GC0003633 METHOD AND MEANS IN WASTE HANDLING 18/130080 2018/07/01
251 GC0003541 HIGH PERFORMANCE DRILLING FLUIDS WITH SUBMICRON-SIZE PARTICLES AS THE WEIGHTING AGENT 17/107050 2017/07/17
252 GC0003698 METHOD AND DEVICE FOR TREATING DREDGED MATERIAL EXTRACTED BY MEANS OF A DREDGING VESSEL 18/130078 2018/07/01
253 GC0002914 ANNULUS MUD FLOW RATE MEASUREMENT WHILE DRILLING AND USE THEREOF TO DETECT WELL DYSFUNCTION 16/80649 2016/07/13
254 GC0004849 SEISMIC IMAGING SYSTEMS AND METHODS EMPLOYING A FAST TARGET-ORIENTED ILLUMINATION CALCULATION 18/130079 2018/07/01
255 GC0004275 Substituted 2-acetamido-5-aryl-1,2,4-triazolones and use thereof 17/107049 2017/07/17
256 GC0003505 PROCESS FOR MAKING POLYETHYLENE TEREPHTHALATE 17/107048 2017/07/17
257 GC0004110 AGRICULTURAL COMPOSITION 18/130077 2018/07/01
258 GC0002908 METHOD TO PREVENT SALT CRYSTAL AGGLOMERATION AND SETTLING IN A DRILLING FLUID 16/80648 2016/07/13
259 GC0003502 A METHOD FOR RECOVERING HYDROCARBON COMPOUNDS AND A HYDROCARBON RECOVERY APPARATUS FROM A GASEOUS BY-PRODUCT 17/107047 2017/07/17
260 GC0005718 AGED-HARDENABLE ALUMINUM ALLOY WITH ENVIRONMENTAL DEGRADABILITY, METHODS OF USE AND MAKING 18/130075 2018/07/01
261 GC0003026 AUTOCHOKE SYSTEM 18/130074 2018/07/01
262 GC0003289 HYDROJET CLEANER AND METHOD FOR CLEANING THE INTERIOR OF A COILED TUBULAR DEVICE 16/80646 2016/07/13
263 GC0003022 SYSTEM AND METHOD FOR MATCHING LITHOLOGY RESPONSES OF DOWNHOLE TOOLS HAVING DIFFERENT SOURCE ENERGIES 18/130072 2018/07/01
264 GC0003448 ELECTRIC POWER CONVERTER AND ELEVATOR APPARATUS USING SAME 16/80647 2016/07/13
265 GC0003498 Method, absorption media and device for the absorption of CO2 from gas mixtures 18/130073 2018/07/01
266 GC0004650 METHODS AND SYSTEMS FOR ENERGY EXCHANGE 18/130071 2018/07/01
267 GC0003500 METHOD FOR UPGRADING FT SYNTHESIS OIL, AND MIXED CRUDE OIL 17/107046 2017/07/17
268 GC0002854 Wellbore servicing fluids comprising cationic polymers and methods of using same 18/130076 2018/07/01
269 GC0003626 Deoxyactagardine Derivatives 16/80645 2016/07/13
270 GC0003304 FASTENING DEVICE FOR A COLLECTOR OF SOLID REMAINS SWIVELING AT THE END OF A MOBILE ARM IN PARTICULAR FASTENING DEVICE FOR ARTICULATED BUCKETS OF A CRUST SHOVEL 17/107044 2017/07/17
271 GC0003156 BROADBAND REFLECTORS, CONCENTRATED SOLAR POWER SYSTEMS, AND METHODS OF USING THE SAME 18/130070 2018/07/01
272 GC0003695 PROCESS FOR PREPARING POLYMETHYLOLS 17/107045 2017/07/17
273 GC0002745 FOAMED POLYOLEFIN COMPOSITION 16/80644 2016/07/13
274 GC0004088 PRESSURE AND FLOW CONTROL IN DRILLING OPERATIONS 17/107043 2017/07/17
275 GC0004694 PROCESS FOR INCREASING THE CARBON MONOXIDE CONTENT OF A SYNGAS MIXTURE 18/130068 2018/07/01
276 GC0003601 METHODS AND SYSTEMS FOR CHARACTERIZING LCM PARTICLE PLUGGING AND RHEOLOGY IN REAL TIME 17/107041 2017/07/17
277 GC0003480 METHOD AND APPARATUS FOR CALIBRATING AND CORRECTING FOR COHERENT NOISE IN CASING DETECTION 17/107040 2017/07/17
278 GC0004212 HUMAN MONOCYTE DERIVED THERAPEUTIC STEM CELLS AND A METHOD FOR INDUCING HUMAN MONOCYTE DERIVED THERAPEUTIC STEM CELLS 18/130066 2018/07/01
279 GC0005863 PROCEDURE AND APPARATUS FOR THE PRODUCTION OF CONTAINERLIKE LAMINATE PACKAGES 18/130067 2018/07/01
280 GC0003154 Process for continuously producing geometric shaped catalyst bodies K 17/107042 2017/07/17
281 GC0003007 POWER MATCHED MIXED REFRIGERANT COMPRESSION CIRCUIT 18/130064 2018/07/01
282 GC0004498 POLYETHYLENE FOR THE PRODUCTION OF INTERMEDIATE BULK CONTAINERS 18/130065 2018/07/01
283 GC0003159 Route Guidance System 17/107139 2017/07/17
284 GC0003638 Inhaler Device 17/107038 2017/07/17
285 GC0002165 MACHINED BED FOR STRAIGHTENING ITS BEDCLOTHES IN AN AUTOMATIC MANNER 15/67355 2015/10/13
286 GC0003433 DIRECTIONAL DRILLING CONTROL USING PERIODIC PERTURBATION OF THE DRILL BIT 18/130069 2018/07/01
287 GC0003714 Spiro-5,6-dihydro-4H-2,3,5,10b-tetraaza-benzo[e]azulenes 17/107039 2017/07/17
288 GC0003020 METHODS AND APPARATUS FOR PLANNING AND DYNAMICALLY UPDATING SAMPLING OPERATIONS WHILE DRILLING IN A SUBTERRANEAN FORMATION 17/107036 2017/07/17
289 GC0003038 A tool for imaging a downhole environment 17/107035 2017/07/17
290 GC0002109 METHOD OF PRODUCING A SHELL-PROOF AND BULLET-PROOF STRUCTURE, AND SHELL-PROOF AND BULLET-PROOF STRUCTURE 18/119116 2018/01/17
291 GC0005058 PYRAZOLYLAMINOPYRIDINES AS INHIBITORS OF FAK 18/130062 2018/07/01
292 GC0003614 A SENSOR MODULE HAVING MULTIPLE PARTS FOR USE IN A WIRELESS SURVEY DATA ACQUISITION SYSTEM 17/107034 2017/07/17
293 GC0003237 Process for producing compounds comprising nitrile functions 16/80643 2016/07/13
294 GC0002699 MAGNETOCALORIC HEAT GENERATOR 18/130061 2018/07/01
295 GC0003346 DYNAMIC CALCULATION OF ALLOCATION FACTORS FOR A PRODUCER WELL 16/80641 2016/07/13
296 GC0003591 AKT AND P70 S6 KINASE INHIBITORS 18/130063 2018/07/01
297 GC0002764 MULTIDIMENSIONAL DATA REPOSITORY FOR MODELING OILFIELD OPERATIONS 16/80640 2016/07/13
298 GC0002928 FULLY COUPLED SIMULATION FOR FLUID FLOW AND GEOMECHANICAL PROPERTIES IN OILFIELD SIMULATION OPERATIONS 16/80639 2016/07/13
299 GC0002613 Process for pyrolysis of carbohydrates 14/55143 2014/10/29
300 GC0003466 FIBROLAST GROWTH FACTOR RECEPTOR-3FGFR-3 INHIBITORS AND METHODS OF TREATMENT THEREOF 18/130060 2018/07/01
301 GC0003599 APPARATUS FOR AZIMUTH MEASUREMENTS USING GYRO SENSORS 17/107033 2017/07/17
302 GC0002213 SOLAR COLLECTOR 18/119115 2018/01/17
303 GC0003317 INHIBITIVE WATER-BASED DRILLING FLUID SYSTEM AND METHOD FOR DRILLING SANDS AND OTHER WATER-SENSITIVE FORMATIONS 17/107029 2017/07/17
304 GC0002792 COMPUTER-IMPLEMENTED SYSTEMS AND METHODS FOR USE IN MODELING A GEOMECHANICAL RESERVOIR SYSTEM 16/80638 2016/07/13
305 GC0003277 BUBBLE COLUMN REACTOR AND METHOD OF CONTROLLING BUBBLE COLUMN REACTOR 17/107032 2017/07/17
306 GC0003655 METHOD FOR STARTING-UP NAPHTHA FRACTION HYDROTREATING REACTOR 17/107030 2017/07/17
307 GC0004852 HYDROCARBON COMPOUND SYNTHESIS REACTION UNIT AND OPERATING METHOD THEREOF 17/107031 2017/07/17
308 GC0002388 CRYSTALLINE FORM OF AN ALKOXYIMIDAZOL-1-YLMETHYL BIPHENYL CARBOXYLIC ACID 14/55159 2014/10/29
309 GC0003008 SLIDE VALVE 18/130003 2018/07/01
310 GC0002585 APPARATUS AND SYSTEM TO ALLOW TOOL PASSAGE AHEAD OF A BIT 17/107028 2017/07/17
311 GC0003398 FOAMED GEL SYSTEMS FOR FRACTURING SUBTERRANEAN FORMATIONS, AND METHODS FOR MAKING AND USING SAME 17/107037 2017/07/17
312 GC0003006 Mixed Refrigerant Compression Circuit 18/130002 2018/07/01
313 GC0002791 INDIRECT-ERROR-BASED, DYNAMIC UPSCALING OF MULTI-PHASE FLOW IN POROUS MEDIA 16/80637 2016/07/13
314 GC0002849 APPARATUS FOR OPENING AND CLOSING MOLDS IN A GLASSWARE FORMING MACHINE 16/80636 2016/07/13
315 GC0003031 CATHODE MEMBER AND BIPOLAR PLATE FOR HYPOCHLORITE CELLS 15/67354 2015/10/13
316 GC0002371 Salts of N-[6-cis-2,6-dimethylmorpholin-4-ylpyridine-3-yl]-2-methyl-4’-trifluoromethoxy[1,1’-biphenyl]-3-carboxamide 18/130004 2018/07/01
317 GC0003424 SYSTEMS AND METHODS FOR EVALUATING FORMATIONS HAVING UNKNOWN OR MIXED SALINITY 18/130001 2018/07/01
318 GC0003019 CENTRIFUGE 18/130000 2018/07/01
319 GC0003559 METHODS FOR MEASUREMENT OF FLUID ELECTRICAL STABILITY 17/107026 2017/07/17
320 GC0002907 METHOD AND SYSTEM OF PROCESSING GAMMA COUNT Rate Decay Curves Using Neural Networks 17/107027 2017/07/17
321 GC0004045 METHOD AND APPARATUS FOR MEASURING RESISTIVITY OF FORMATIONS 17/107024 2017/07/17
322 GC0004018 CELL DISRUPTION OF PLANT AND ANIMAL RAW MATERIALS BY A COMBINATION OF ATOMIZATION PROCESSES WITH DECOMPRESSION PROCESSES FOR SELECTIVE EXTRACTION AND SEPARATION OF INTRACELLULAR VALUABLE SUBSTANCES 18/129999 2018/07/01
323 GC0004976 DIRECT AND SELECTIVE PRODUCTION OF ETHANOL FROM ACETIC ACID UTILIZING A PLATINUM/TIN CATALYST 18/129998 2018/07/01
324 GC0003348 SYSTEM AND METHOD FOR DRILLING A BOREHOLE 18/129997 2018/07/01
325 GC0003866 ESTIMATING WORST CASE CORROSION IN A PIPEPLINE 16/80634 2016/07/13
326 GC0003628 APPARATUS FOR BALANCING IMPEDANCE OF A RESISTIVITY MEASURING TOOL 17/107023 2017/07/17
327 GC0003326 THROUGH COLLECTOR FOR ASOLAR POWRR PLANT 16/80633 2016/07/13
328 GC0004071 APPARATUS AND METHODS FOR CHARACTERIZING A RESERVOIR 17/107020 2017/07/17
329 GC0002850 Geometrical Structural System 18/129996 2018/07/01
330 GC0003081 METHOD FOR PROPAGATING PSEUDO ACOUSTIC QUASI-P WAVES IN ANISOTROPIC MEDIA 16/80635 2016/07/13
331 GC0003477 ORGANIC COMPOUNDS AS SMO INHIBITORS 17/107022 2017/07/17
332 GC0003757 APPARATUS & PROCESS FOR TREATING OFFSHORE NATURAL GAS 17/107019 2017/07/17
333 GC0002893 Completion Assembly for Stimulation of Production of Wellbore 17/107021 2017/07/17
334 GC0006138 HIGH SHEAR PROCESS FOR AIR/FUEL MIXING 18/129995 2018/07/01
335 GC0002043 Instant water heat reducer 14/55142 2014/10/29
336 GC0002711 MULTI-SCALE FINITE VOLUME METHOD FOR RESERVOIR SIMULATION 16/80632 2016/07/13
337 GC0003696 ORAL HERBAL COMPOSITION FOR THE TREATMENT OF ORAL CANDIDIASIS 18/129994 2018/07/01
338 GC0002474 ESTIMATION OF SOIL PROPERTIES USING WAVEFORMS OF SEISMIC SURFACE WAVES 17/107025 2017/07/17
339 GC0003636 A PHARMACEUTICAL COMPOSITION Containing Rebamipide 17/107018 2017/07/17
340 GC0002354 NOVEL BRIDGED PIPERAZINYL-1-ALKANONE DERIVATIVES AND USE THEREOF AS p75 INHIBITORS 16/80631 2016/07/13
341 GC0003635 2-OXOALKYL-1-PIPERAZIN 2 ONE DERIVATIVES, PREPARATION THEREOF AND THERAPEUTIC USE THEREOF 16/80630 2016/07/13
342 GC0003556 MOTOR ASSEMBLY 17/107017 2017/07/17
343 GC0002834 MODULAR BUILDING CONSTRUCTION ARRANGEMENT 16/80629 2016/07/13
344 GC0003494 DISTRIBUTION OF PROPERTIES IN A 3D VOLUMETRIC MODEL USING A MAXIMUM CONTINUITY FIELD 17/107015 2017/07/17
345 GC0004070 SYSTEMS AND METHODS FOR PROVIDING WIRELESS POWER TRANSMISSIONS AND TUNING A TRANSMISSION FREQUENCY 17/107016 2017/07/17
346 GC0003643 MEASURING CASING ATTENUATION COEFFICIENT FOR ELECTRO-MAGNETICS MEASUREMENTS 17/107014 2017/07/17
347 GC0002940 VALVE TRIM RETENTION APPARATUS 15/67353 2015/10/13
348 GC0001982 Submerged Hollow Fiber Membrane Module 15/67352 2015/10/13
349 GC0003592 PROCESS FOR THE MANUFACTURE OF AT LEAST ONE ETHYLENE DERIVATIVE COMPOUND 17/107013 2017/07/17
350 GC0005619 DRUG COMBINATIONS COMPRISING A DGAT INHIBITOR AND A PPAR-AGONIST 18/129993 2018/07/01
351 GC0003147 METHODS AND APPARATUS TO FORM A WELL 17/107012 2017/07/17
352 GC0004057 DOWNHOLE MEASUREMENT OF FORMATION CHARACTERISTICS WHILE DRILLING 17/107011 2017/07/17
353 GC0003314 SEISMIC WAVE GENERATION SYSTEMS AND METHODS FOR CASED WELLS 17/107010 2017/07/17
354 GC0002554 WEARING ARTICLE AND METHOD OF FOLDING UP THE SAME 14/55161 2014/10/29
355 GC0003124 TROUGH COLLECTOR FOR A SOLAR POWER PLANT 17/107009 2017/07/17
356 GC0003523 ROTATOR FOR WIRELINE CONVEYED WELLBORE INSTRUMENTS AND METHOD FOR ROTATING AN INSTRUMENT IN A WELLBORE 16/80628 2016/07/13
357 GC0005217 METHODS AND APPARATUS FOR SPLITTING MULTI-PHASE FLOW 18/129992 2018/07/01
358 GC0002476 SYSTEMS AND METHODS FOR DETERMINING GEOLOGIC PROPERTIES USING ACOUSTIC ANALYSIS 14/55141 2014/10/29
359 GC0002722 Downhole Sub with Hydraulically Actuable Sleeve Valve 17/107008 2017/07/17
360 GC0003165 SIDEWALL CONSTRUCTION OF A CASTING MOLD 18/129991 2018/07/01
361 GC0002754 Method for Increasing the recovery of hydrocarbons 16/80627 2016/07/13
362 GC0003018 ELECTROMAGNETIC-SEISMIC LOGGING SYSTEM AND METHOD 15/67350 2015/10/13
363 GC0002927 MULTIUSER OILFIELD DOMAIN ANALYSIS AND DATA MANAGEMENT 16/80740 2016/07/13
364 GC0002673 METHOD OF MISCIBLE INJECTION TESTING OF OIL WELLS AND SYSTEM THEREOF 15/67349 2015/10/13
365 GC0003932 HETEROCYCLIC AMINE CATALYST COMPOSITIONS FOR THE ALKOXYLATION OF ALCOHOLS TO GLYCOL ETHERS 18/129990 2018/07/01
366 GC0003703 SYSTEMS AND METHODS FOR PRODUCING OIL AND/OR GAS 16/80738 2016/07/13
367 GC0002831 SYSTEMS AND METHODS FOR PRODUCING OIL AND/OR GAS 16/80739 2016/07/13
368 GC0003157 USING MINES AND TUNNELS FOR TREATING SUBSURFACE HYDROCARBON CONTAINING FORMATIONS 16/80737 2016/07/13
369 GC0003044 METHOD FOR DETERMINING WELLBORE POSITION USING SEISMIC SOURCES AND SEISMIC RECEIVERS 17/107006 2017/07/17
370 GC0002971 METHOD OF POROUS FORMATION PERMEABILITY MEASUREMENT 18/129988 2018/07/01
371 GC0002987 A METHOD OF SATURATED FORMATION PERMEABILITY DETERMINATION 18/129989 2018/07/01
372 GC0002614 A DEVICE FOR REGISTRATION OF ROTATIONAL PARAMETERS DURING ASSEMBLY OF A PIPE STRING 17/107005 2017/07/17
373 GC0004086 BENZOPYRAN AND BENZOXEPIN PI3K INHIBITOR COMPOUNDS AND METHODS OF USE 16/80736 2016/07/13
374 GC0003561 SYSTEMS AND METHODS MONITORING TIME-DEPENDENT SUBSURFACE CHANGES 17/107004 2017/07/17
375 GC0002406 VISUALIZING REGION GROWING IN THREE DIMENSIONAL VOXEL VOLUMES 16/80735 2016/07/13
376 GC0002880 Downhole Shock Absorber with Crushable Nose 18/129986 2018/07/01
377 GC0003099 ELECTRICALLY HEATED AEROSOL GENERATING SYSTEM AND METHOD 17/107002 2017/07/17
378 GC0003682 OPERATION METHOD OF SYNTHESIS GAS REFORMER IN GTL PLANT 17/107003 2017/07/17
379 GC0005690 LOW VISCOSITY, HIGHLY FLOCCULATED TRIAMCINOLONE ACETONIDE SUSPENSIONS FOR INTRAVITREAL INJECTION 18/129984 2018/07/01
380 GC0003142 REAL-TIME FILTRATION APPARATUS AND ASSOCIATED METHODS BACKGROUND 17/107001 2017/07/17
381 GC0003931 CRYSTALLINE FORMS AND TWO SOLVATED FORMS OF 4-AMINO-5-FLUORO-3-[5-4-METHYLPIPERAZIN-1-YL-1H-BENZIMIDAZOL-2-YL]QUINOLIN-21H-ONE LACTIC ACID SALTS 18/129985 2018/07/01
382 GC0003416 PROCESS OF THE PREPARATION OF ALKYLENE GLYCOLS 18/129987 2018/07/01
383 GC0004273 DRINKING WATER AND SERVICE WATER SUPPLY FACILITY FOR A BUILDING AND CONTROL DEVICE FOR SAME 17/106999 2017/07/17
384 GC0002762 TREATMENT FLUID WITH OXIDIZER BREAKER SYSTEM AND METHOD 17/107000 2017/07/17
385 GC0002805 Novel surfactants for tertiary mineral oil extraction based on branched alcohols ‎ 17/107007 2017/07/17
386 GC0003711 SYNERGISTIC ACID BLEND EXTRACTION AID AND METHOD FOR ITS USE 17/106998 2017/07/17
387 GC0005977 ABSORBENT ARTICLE 18/129983 2018/07/01
388 GC0003355 WELLSITE SYSTEMS UTILIZING DEPLOYABLE STRUCTURE 18/129982 2018/07/01
389 GC0002974 ESTIMATING HORIZONTAL STRESS FROM THREE-DIMENSIONAL ANISOTROPY 15/67348 2015/10/13
390 GC0004256 POLYMERIC MICROSPHERES AS DEGRADABLE FLUID LOSS ADDITIVES IN OILFIELD APPLICATIONS 17/106997 2017/07/17
391 GC0002874 OXAZOLIDINONE DERIVATIVES 16/80732 2016/07/13
392 GC0003177 SYSTEM AND METHOD OF MARKETING BEAUTY PRODUCTS 11/24236 2011/05/19
393 GC0003100 GAS TURBINE Design that minimizes the Risk of breaking down of the Welded Combustor Shells 16/80734 2016/07/13
394 GC0005285 METHODS AND APPARATUS TO ACHIEVE CRYSTALLIZATION OF POLYMERS UTILIZING MULTIPLE PROCESSING SYSTEMS 18/129981 2018/07/01
395 GC0002896 3-INDAZOLYL-4-PYRIDYLISOTHIAZOLES 15/67341 2015/10/13
396 GC0004254 POLYMERISATION REACTOR 18/129980 2018/07/01
397 GC0002698 WATER TREATMENT PROCESS WITH SEQUENCED FILTRATION 15/67340 2015/10/13
398 GC0003170 HEPATITIS C VIRUS INHIBITORS 17/106994 2017/07/17
399 GC0003070 HEPATITIS C VIRUS INHIBITORS 17/106995 2017/07/17
400 GC0003150 SYSTEM AND METHOD FOR DISPLAYING DATA ASSOCIATED WITH SUBSURFACE RESERVOIRS 17/106993 2017/07/17
401 GC0003778 METHOD FOR RECOVERY OF HEAT FROM A CARBON DIOXIDE RECOVERY PROCESS 18/129979 2018/07/01
402 GC0002584 N,N-DISUBSTITUTED AMINOALKYLBIPHENYL ANTAGONISTS OF PROSTAGLANDIN D2 RECEPTORS 14/55162 2014/10/29
403 GC0002031 Hybrid Stratigraphic Layering Using Pseudo-Wheeler Space 18/129978 2018/07/01
404 GC0002454 POLYETHYLENE COMPOSITIONS, METHOD OF PRODUCING THE SAME, ARTICLES MADE THEREFROM, AND METHOD MAKING THE SAME 15/67097 2015/10/13
405 GC0004056 METHOD FOR SINGLE-STAGE TREATMENT OF SILICEOUS SUBTERRANEAN FORMATIONS 18/129977 2018/07/01
406 GC0002697 Pressure Balanced Piston For Subsurface Safety Valves 18/129976 2018/07/01
407 GC0003634 SLOWNESS-FREQUENCY PROJECTION DISPLAY AND ANIMATION 17/106991 2017/07/17
408 GC0004036 METHODS AND APPARATUS FOR CHARACTERIZATION OF PETROLEUM FLUID AND APPLICATIONS THEREOF 17/106992 2017/07/17
409 GC0002400 DERIVATIVES OF INDOLE-2-CARBOXAMIDES AND OF AZAINDOLE-2-CARBOXAMIDES SUBSTITUTED WITH A SILANYL GROUP, PREPARATION THEREOF AND THERAPEUTIC USE THEREOF 14/55369 2014/10/29
410 GC0003017 DEVICE AND METHOD FOR SHORT-CIRCUITING ONE OR MORE CELLS IN AN ARRANGEMENT OF ELECTROLYSIS CELLS INTENDED FOR THE PRODUCTION OF ALUMINIUM 18/129975 2018/07/01
411 GC0002574 METHODS AND APPARATUS FOR ANALYSIS OF DOWNHOLE COMPOSITIONAL GRADIENTS AND APPLICATIONS THEREOF 17/106990 2017/07/17
412 GC0003539 Process for producing compounds comprising nitrile functions 16/80730 2016/07/13
413 GC0003715 PROCESS FOR PRODUCING CYCLOHEXYLBENZENE 17/106996 2017/07/17
414 GC0001479 Medical bed with special equipment 16/80728 2016/07/13
415 GC0003055 ARTIFICIAL TURF AND METHOD AND DEVICE FOR FORMING THEREOF 16/80727 2016/07/13
416 GC0002555 METHOD FOR FORMING SHEETS WITH ELASTICIZED REGIONS AND SHEETS MADE BY THIS METHOD 14/55368 2014/10/29
417 GC0006264 SYSTEMS AND METHODS FOR OPTIMIZATION OF REAL TIME PRODUCTION OPERATIONS 18/129974 2018/07/01
418 GC0004301 SYSTEMS AND METHODS FOR WELL DATA ANALYSIS 17/106989 2017/07/17
419 GC0002462 Ethylene-Based Polymer Compositions, Methods of Making the Same, and Articles Prepared from the Same 18/129973 2018/07/01
420 GC0002030 Method for oligomerisation of ethylene and reactor system therefore 18/129972 2018/07/01
421 GC0004211 METHOD AND COMPOSITION FOR CURING LOST CIRCULATION 17/106988 2017/07/17
422 GC0004303 METHOD AND SYSTEM FOR TRANSMITTING BOREHOLE IMAGE DATA 17/106987 2017/07/17
423 GC0003148 BOREHOLE IMAGING AND ORIENTATION OF DOWNHOLE TOOLS 15/67096 2015/10/13
424 GC0002592 Acoustic Measurements with Downhole Sampling and Testing Tools 15/67094 2015/10/13
425 GC0002995 Pump Housing Assembly 15/67093 2015/10/13
426 GC0002035 Gas Foil Impeller 16/80726 2016/07/13
427 GC0002379 NANO-LINKED METALLOCENE CATALYST COMPOSITIONS AND THEIR POLYMER PRODUCTS 14/55367 2014/10/29
428 GC0003472 USE OF POLYIMIDES IN TREATING SUBTERRANEAN FORMATIONS 18/129970 2018/07/01
429 GC0002153 Proppants and Uses Thereof 17/106986 2017/07/17
430 GC0004115 METHODS OF CONTACTING AND/OR TREATING A SUBTERRANEAN FORMATION 18/129971 2018/07/01
431 GC0002294 METHOD OF EXPANDING A TUBULAR ELEMENT IN A WELLBORE 16/80724 2016/07/13
432 GC0003134 MANEUVERING DEVICE WITH ELECTRIC ENERGY ACCUMULATION FOR SWITCHES OR DISCONNECT SWITCHES 17/106984 2017/07/17
433 GC0002315 Aminopyrazole Derivatives 16/80725 2016/07/13
434 GC0004388 HIGH VELOCITY STRING FOR PROGRESSING CAVITY PUMP 17/106985 2017/07/17
435 GC0002795 Method of Making Mixed Metal Oxide Catalysts for Ammoxidation and/or Oxidation of Lower Alkane Hydrocarbons 16/80723 2016/07/13
436 GC0002761 METHOD AND SYSTEM FOR FRACTURING SUBSURFACE FORMATIONS DURING THE DRILLING THEREOF 17/106983 2017/07/17
437 GC0002132 A POST HOLDER 13/43401 2013/09/11
438 GC0001870 SELF-BOOSTING WEDGE TUBING-TO-CASING SEAL 13/43443 2013/09/11
439 GC0003491 5-AMINOCYCLYLMETHYL-OXAZOLIDIN-2-ONE DERIVATIVES 16/80722 2016/07/13
440 GC0002633 A VISUALIZATION SYSTEM FOR A DOWNHOLE TOOL 15/67092 2015/10/13
441 GC0002355 Derivatives of 6,7-dihydro-5H-imidazo[1,2-A]imidazole-3-carboxylic acid amides 16/80720 2016/07/13
442 GC0002438 CATALYST WITH SUPPORT STRUCTURE 16/80719 2016/07/13
443 GC0002878 Catalyst composition and process for preparing linear alpha-olefins 18/129969 2018/07/01
444 GC0003045 METHODS AND SYSTEMS FOR EVALUATING FLUID MOVEMENT RELATED RESERVOIR PROPERTIES VIA CORRELATION OF LOW-FREQUENCY PART OF SEISMIC DATA WITH BOREHOLE MEASUREMENTS 15/67091 2015/10/13
445 GC0003323 SYSTEMS AND METHODS FOR PRODUCING OIL AND/OR GAS 16/80715 2016/07/13
446 GC0003548 SYSTEMS AND METHODS FOR PRODUCING OIL AND/OR GAS 16/80716 2016/07/13
447 GC0002743 SYSTEMS AND METHODS FOR PRODUCING OIL AND/OR GAS 16/80714 2016/07/13
448 GC0002589 FOLDABLE MARINE SEISMIC SOURCE 15/67089 2015/10/13
449 GC0002982 ABSORPTIVE ARTICLE 16/80713 2016/07/13
450 GC0002376 PROCESS FOR ONE-POT SYNTHESIS OF 1,1-DIPHENYL-1-3-SUBSTITUTED-CYCLOPENTADIENYL-1-2,7-DI-T-BUTYL-FLUOREN-9-YLMETHANE TYPE LIGANDS 14/55366 2014/10/29
451 GC0003004 A method of demand side electrical load management and an associated apparatus and system 16/80712 2016/07/13
452 GC0002398 PROCESS AND DEVICE FOR REMOVING THIMBLES FROM ANODE LEGS, NOTABLY ANODES USED FOR THE PRODUCTION OF ALUMINIUM BY IGNEOUS ELECTROLYSIS 15/67088 2015/10/13
453 GC0003650 Asphalt Modifiers For “Warm Mix” Applications Including Adhesion Promoter 16/80711 2016/07/13
454 GC0002254 MINERALOCORTICOID RECEPTOR ANTAGONISTS AND METHODS OF USE 17/106982 2017/07/17
455 GC0003677 Crane with a sun and/or weather protection device 18/129967 2018/07/01
456 GC0004176 EXTENDING THE LIFE OF AN AROMATIZATION CATALYST 18/129968 2018/07/01
457 GC0002847 Bottom Plate Lift Mechanism for A Glassware Forming Machine 16/80718 2016/07/13
458 GC0001713 Drag head of a trailing suction hopper dredger and method for dredging using this drag head 17/106981 2017/07/17
459 GC0001786 Method And Apparatus For Longitudinal Orientation Of Thermoplastic Film Material 15/58339 2015/01/05
460 GC0002374 DETERMINATION OF DENSITY FOR METERING A FLUID FLOW 16/80709 2016/07/13
461 GC0003239 Hydroprocessing Bulk Catalyst and Uses Thereof 16/80708 2016/07/13
462 GC0002848 Glassware Forming Machine Blowhead Arm Assembly 16/80717 2016/07/13
463 GC0003183 SYSTEMS AND METHODS FOR PRODUCING OIL AND/OR GAS 16/80707 2016/07/13
464 GC0002760 METHOD FOR PRODUCING AROMATIC CARBOXYLIC ACID 17/106980 2017/07/17
465 GC0002537 Table for washing dead bodies 14/55365 2014/10/29
466 GC0003847 PELLETIZING DEVICE AND CUTTER AND/OR GRINDING HEAD FOR SUCH PELLETIZING DEVICE 16/80705 2016/07/13
467 GC0003553 IN SITU OXIDATION OF SUBSURFACE FORMATIONS 16/80703 2016/07/13
468 GC0003322 VARIABLE VOLTAGE LOAD TAP CHANGING TRANSFORMER 18/129966 2018/07/01
469 GC0001981 WATER ABSORBING MATERIALS USED AS AN IN-FLOW CONTROL DEVICE 13/43442 2013/09/11
470 GC0003180 THREE-PHASE HEATERS WITH COMMON OVERBURDEN SECTIONS FOR HEATING SUBSURFACE FORMATIONS 16/80704 2016/07/13
471 GC0003046 FORMATION MODELING WHILE DRILLING FOR ENHANCED HIGH ANGLE OR HORIZONTAL WELL PLACEMENT 17/106979 2017/07/17
472 GC0003543 COMPOSITIONS AND METHODS FOR TREATMENT OF WELL BORE TAR 16/80702 2016/07/13
473 GC0003299 METHOD AND APPARATUS FOR CONTROLLING A REFRIGERANT COMPRESSOR, AND USE THEREOF IN A METHOD OF COOLING A HYDROCARBON STREAM 16/80701 2016/07/13
474 GC0003789 METHODS AND SYSTEMS FOR MEASUREMENT OF FLUID ELECTRICAL STABILITY 17/106978 2017/07/17
475 GC0003131 ANTI-HEPCIDIN ANTIBODIES AND USES THEREOF 16/80706 2016/07/13
476 GC0002858 METHOD OF AND APPARATUS FOR MODIFYING BOND ANGLES OF MOLECULES AND APPLICATIONS THEREOF 15/67087 2015/10/13
477 GC0003050 Multi-Sectional Roller Mill 16/80697 2016/07/13
478 GC0003003 COARSE WELLSITE ANALYSIS FOR FIELD DEVELOPMENT PLANNING 15/67085 2015/10/13
479 GC0002483 OXIDATION OF HYDROCARBONS 14/55584 2014/10/30
480 GC0002769 MODULAR CONNECTOR AND METHOD 17/106977 2017/07/17
481 GC0002519 TELEMETRY SYSTEM FOR SLICKLINE ENABLING REAL TIME LOGGING 16/80700 2016/07/13
482 GC0002099 SYSTEM AND METHOD FOR PERFORMING OILFIELD OPERATIONS 15/67084 2015/10/13
483 GC0003408 HYDROCARBON-REFORMING CATALYST AND PROCESS FOR PRODUCING SYNTHESIS GAS USING THE SAME 16/80699 2016/07/13
484 GC0002000 Process for the Purification of Hexamethylenediamine 15/67083 2015/10/13
485 GC0002801 MIXING APPARATUS FOR GASES 17/106976 2017/07/17
486 GC0002098 QUINAZOLINEDIONE DERIVATIVES, THEIR PREPARATION AND THEIR THERAPEUTIC APPLICATIONS 16/80696 2016/07/13
487 GC0002399 DETERMINING CORRECTION FACTORS REPRESENTING EFFECTS OF DIFFERENT PORTIONS OF A LINING STRUCTURE 18/129965 2018/07/01
488 GC0001990 Process for Separating Trioxane from A Trioxane/formaldehyde/water mixture by means of Pressure Swing Rectification 15/67082 2015/10/13
489 GC0001838 Process for the Manufacture of Amines by Hydrogenation of Nitrile Compounds 15/67080 2015/10/13
490 GC0004134 NOVEL ANTIBODIES 17/106975 2017/07/17
491 GC0003273 SYNTHETIC NAPHTHA MANUFACTURING METHOD 17/106974 2017/07/17
492 GC0003095 BUBBLE COLUMN TYPE HYDROCARBON SYNTHESIS REACTOR, AND SLURRY LEVEL DETECTING METHOD 17/106973 2017/07/17
493 GC0002566 IMPROVED START-UP DETECTION IN A DIMMER CIRCUIT 15/67079 2015/10/13
494 GC0002818 GLUCOKINASE ACTIVATORS 18/129964 2018/07/01
495 GC0003318 NEW PROCESS FOR THE SYNTHESIS OF STRONTIUM RANELATE AND ITS HYDRATES 18/129963 2018/07/01
496 GC0003785 LOCKING CLUTCH FOR DOWNHOLE MOTOR 16/80695 2016/07/13
497 GC0001958 FILTRATION EQUIPMENT OF HOLLOW FIBER MEMBRANE 15/67069 2015/10/13
498 GC0003521 METHODS OF PRODUCING ORGANIC PRODUCTS WITH PHOTOSYNTHETIC ORGANISMS AND PRODUCTS AND COMPOSITIONS THEREOF 16/80694 2016/07/13
499 GC0002215 A PROCESS FOR HYDROCRACKING AND HYDRO-ISOMERISATION OF A PARAFFINIC FEEDSTOCK 17/106972 2017/07/17
500 GC0002058 apparatus and methods for RUNNING LINERS IN EXTENDED REACH WELLS 18/129962 2018/07/01
501 GC0003316 Drilling mud containing carbon nanotubes 18/129961 2018/07/01
502 GC0002204 SLURRY PHASE POLYMERISATION PROCESS 16/80692 2016/07/13
503 GC0002839 SLURRY PHASE POLYMERISATION PROCESS 16/80693 2016/07/13
504 GC0003246 Stabilization of gas hydrates 18/129960 2018/07/01
505 GC0002865 DRILL IN SAND CONTOL LINER 14/55071 2014/03/27
506 GC0002882 INTERVENTIONLESS MULTI-POSITION FRAC TOO 14/55072 2014/04/09
507 GC0002980 METHOD AND SYSTEM FOR DATA CONTEXT SERVICE 15/67067 2015/10/13
508 GC0002572 FLOW CONTROL DEVICE AND METHOD FOR A DOWNHOLE OIL-WATER SEPARATOR 17/106971 2017/07/17
509 GC0002864 Multi-position Valve for Fracturing and Sand Control and Associated Completion Methods 14/55070 2014/03/27
510 GC0003258 SYSTEM AND PROCESS FOR OPTIMIZING PROCESS CONTROL 16/80691 2016/07/13
511 GC0004983 CATALYST AND PROCESS FOR CONVERTING ALIPHATIC OXYGENTES TO AROMATICS 18/129959 2018/07/01
512 GC0002148 PIPERAZINE AMIDE DERIVATIVES 13/43468 2013/09/11
513 GC0002028 COMPOUNDS FOR TREATMENT OF HEPATITIS C 15/67066 2015/10/13
514 GC0003324 METHOD FOR GENERATING, REPAIRING AND/OR MAINTAINING CONNECTIVE TISSUE IN VIVO 16/80690 2016/07/13
515 GC0002267 A METHOD FOR MANAGING PRODUCTION FROM A HYDROCARBON PRODUCING RESERVOIR IN REAL-TIME 15/67064 2015/10/13
516 GC0004357 REGENERATION OF CATALYSTS FOR THE DEHYDROGENATION OF ALKANES 17/106969 2017/07/17
517 GC0003213 Device and method for analyzing fluid samples 16/80689 2016/07/13
518 GC0002913 CURRENT COLLECTING CONTACT MEMBER 18/129957 2018/07/01
519 GC0006187 DRILLING FLUIDS COMPRISING SIZED GRAPHITE PARTICLES 18/129956 2018/07/01
520 GC0002447 DRAINAGE OF HEAVY OIL RESERVOIR VIA HORIZONTAL WELLBORE 18/129958 2018/07/01
521 GC0002263 Tricyclic N-heteroarylcarboxamide derivatives, preparation thereof and therapeutic use thereof 14/55583 2014/10/30
522 GC0002979 A CYCLONIC FLOW SEPARATOR 17/106968 2017/07/17
523 GC0006272 EXPLOSION-PROOF MATERIAL AND ITS PROCESSING METHOD 18/129955 2018/07/01
524 GC0004618 SYSTEM AND METHOD FOR LOW DAMAGE FRACTURING 18/129954 2018/07/01
525 GC0003347 METHOD TO SIMULTANEOUSLY DETERMINE PORE HYDROCARBON DENSITY AND WATER SATURATION FROM PULSED NEUTRON MEASUREMENTS 18/129953 2018/07/01
526 GC0002587 APPARATUS, METHOD, AND SYSTEM FOR STOCHASTIC WORKFLOW IN OILFIELD OPERATIONS 15/67062 2015/10/13
527 GC0002130 DEFORMABLE/INFLATABLE WEAR LINER 14/55181 2014/10/29
528 GC0002240 NEW GEL COAT FORMULATION 16/80687 2016/07/13
529 GC0002759 POLYMER DELIVERY IN WELL TREATMENT APPLICATIONS 18/129952 2018/07/01
530 GC0003646 PROCESS FOR PREPARING AND CROSSLINKING A CABLE COMPRISING A POLYMER COMPOSITION AND A CROEELINKED CABLE 18/129951 2018/07/01
531 GC0001908 INHIBITORS OF 11B-HYDROXYSTEROID DEHYDROGENAS 14/55160 2014/10/29
532 GC0005475 A TOOL FOR DOWNHOLE FORMATION EVALUATION 18/129950 2018/07/01
533 GC0003199 DETERMINING FORMATION PARAMETERS USING ELECTROMAGNETIC COUPLING COMPONENTS 18/129906 2018/07/01
534 GC0002107 WELL JET DEVICE FOR EXTRACTING OIL FROM WELLS 15/67060 2015/10/13
535 GC0002351 EFFICIENT SEISMIC DATA ACQUISITION WITH SOURCE SEPARATION 16/80686 2016/07/13
536 GC0002158 PYRIMIDYL CYCLOPENTANES AS AKT PROTEIN KINASE INHIBITORS 16/80684 2016/07/13
537 GC0002871 Method for Determining Seismic Data Quality 16/80688 2016/07/13
538 GC0002670 DRILLING FLUID ADDITIVE FOR REDUCING LOST CIRCULATION IN A DRILLING OPERATION 16/80685 2016/07/13
539 GC0002693 ROTARY STIRRING DEVICE FOR TREATING MOLTEN METAL 18/129905 2018/07/01
540 GC0001628 Evaporative cooler using advanced traverse fan without fan housing 16/80624 2016/07/13
541 GC0002175 CONNECTIONS FOR EXANDABLE TUBULARS 15/58338 2015/01/05
542 GC0002198 SYSTEM AND PROCESS FOR PRODUCTION OF BENZOIC ACIDS AND PHTHALIC ACIDS 17/106966 2017/07/17
543 GC0002194 SYSTEM AND PROCESS FOR PRODUCTION OF TOLUENE DIISOCYANATE 17/106963 2017/07/17
544 GC0002195 HIGH SHEAR PROCESS FOR THE PRODUCTION OF CUMENE HYDROPEROXIDE 18/129903 2018/07/01
545 GC0002199 SYSTEM AND PROCESS FOR ALKYLATION 18/129904 2018/07/01
546 GC0002841 SYSTEM AND PROCESS FOR PRODUCTION OF POLYETHYLENE AND POLYPROPYLENE 17/106967 2017/07/17
547 GC0002193 HIGH SHEAR SYSTEM AND PROCESS FOR THE PRODUCTION OF ACETIC ANHYDRIDE 18/129902 2018/07/01
548 GC0002192 HIGH SHEAR PROCESS FOR CYCLOHEXANE PRODUCTION 18/129901 2018/07/01
549 GC0001650 16/80626 2016/07/13
550 GC0001649 16/80625 2016/07/13
551 GC0002196 SYSTEM AND PROCESS FOR PRODUCTION OF LIQUID PRODUCT FROM LIGHT GAS 17/106964 2017/07/17
552 GC0004987 SYSTEM AND PROCESS FOR GAS SWEETENING 18/129900 2018/07/01
553 GC0002197 SYSTEM AND PROCESS FOR THE PRODUCTION OF ANILINE AND TOLUENEDIAMINE 17/106965 2017/07/17
554 GC0002191 HIGH SHEAR PROCESS FOR THE PRODUCTION OF CHLOROBENZENE 17/106962 2017/07/17
555 GC0004033 METHODS AND COMPOSITIONS FOR SELECTIVELY DISSOLVING SANDSTONE FORMATIONS 17/106961 2017/07/17
556 GC0002033 Thermoelectric Element 18/129899 2018/07/01
557 GC0003736 POLYMORPHIC AND HYDRATE FORMS, SALTS AND PROCESS FOR PREPARING 6-{DIFLUORO[6-1-METHYL-1H-PYRAZOL-4-YL[1,2,4]TRIAZOLO[4,3-‎B]PYRIDAZIN-3-YL]METHYL}QUINOLINE